This is the latest recevied weather packets stored in our database for station/object OH6GKW. If no packets are shown the sender has not sent any weather packets the latest 10 day(s).
| Time | Temp. | Humidity | Pressure | Rain* | Wind** | Luminosity | Snow |
|---|---|---|---|---|---|---|---|
| 1777691614 | 5° C | 84% | 1006.2 hPa | 0 mm | - | 26 W/m² | - |
| 1777691309 | 5° C | 84% | 1006.2 hPa | 0 mm | - | 26 W/m² | - |
| 1777691012 | 4.44° C | 85% | 1006.2 hPa | 0 mm | - | 28 W/m² | - |
| 1777690726 | 4.44° C | 86% | 1006.6 hPa | 0 mm | - | 23 W/m² | - |
| 1777690418 | 4.44° C | 87% | 1006.6 hPa | 0 mm | - | 21 W/m² | - |
| 1777690110 | 4.44° C | 87% | 1006.6 hPa | 0 mm | - | 18 W/m² | - |
| 1777689824 | 4.44° C | 87% | 1006.9 hPa | 0 mm | - | 14 W/m² | - |
| 1777689516 | 4.44° C | 87% | 1006.9 hPa | 0 mm | - | 9 W/m² | - |
| 1777689222 | 4.44° C | 87% | 1006.9 hPa | 0 mm | - | 5 W/m² | - |
| 1777688913 | 4.44° C | 87% | 1006.8 hPa | 0 mm | - | 5 W/m² | - |
| 1777688626 | 4.44° C | 87% | 1006.8 hPa | 0 mm | - | 0 W/m² | - |
| 1777688318 | 4.44° C | 87% | 1006.8 hPa | 0 mm | - | 0 W/m² | - |
| 1777688010 | 4.44° C | 87% | 1007 hPa | 0 mm | - | 0 W/m² | - |
| 1777687723 | 4.44° C | 87% | 1007 hPa | 0 mm | - | 0 W/m² | - |
| 1777687414 | 4.44° C | 87% | 1007 hPa | 0 mm | - | 0 W/m² | - |
| 1777687138 | 4.44° C | 88% | 1007.2 hPa | 0 mm | - | 0 W/m² | - |
| 1777686834 | 4.44° C | 88% | 1007.2 hPa | 0 mm | - | 0 W/m² | - |
| 1777686526 | 4.44° C | 88% | 1007.2 hPa | 0 mm | - | 0 W/m² | - |
| 1777686219 | 4.44° C | 88% | 1007.4 hPa | 0 mm | - | 0 W/m² | - |
| 1777685911 | 5° C | 88% | 1007.4 hPa | 0 mm | - | 0 W/m² | - |
| 1777685626 | 5° C | 88% | 1007.4 hPa | 0 mm | - | 0 W/m² | - |
| 1777685316 | 5° C | 89% | 1007.6 hPa | 0 mm | - | 0 W/m² | - |
| 1777685009 | 4.44° C | 90% | 1007.6 hPa | 0 mm | - | 0 W/m² | - |
| 1777684733 | 4.44° C | 92% | 1007.6 hPa | 0 mm | - | 0 W/m² | - |
| 1777684410 | 4.44° C | 92% | 1007.7 hPa | 0 mm | - | 0 W/m² | - |
* Rain since midnight (hover to see other rain measurements)
** Current wind speed in m/s (hover to see current wind gust speed)